This demonstration page uses our WeatherBlox Daily Observations layout. Learn more.

Left ArrowRight Arrow

41.12389, -100.76542

Hourly Observations for July 10, 2016

Temp ( °F °C ) Dew Point ( °F °C ) Humidity (%) Winds ( mph kmh ) Pressure ( in mb ) Visibility ( mi km ) Precip ( " mm )
12:53 am 00:53 Clear 76 24.4 68 20 77 77 ESE 9 15 29.80 1009 10 16 0.00 0.00
1:53 am 01:53 Clear 76 24.4 67 19.4 74 74 SSE 10 17 29.79 1009 10 16 0.00 0.00
2:53 am 02:53 Clear 75 23.9 67 19.4 76 76 SSE 7 11 29.78 1008 10 16 0.00 0.00
3:53 am 03:53 Clear 74 23.3 67 19.4 79 79 SSE 6 9 29.77 1008 10 16 0.00 0.00
4:53 am 04:53 Clear 72 22.2 67 19.4 84 84 SSE 8 13 29.75 1008 10 16 0.00 0.00
5:53 am 05:53 Clear 71 21.7 66 18.9 84 84 E 5 7 29.75 1008 10 16 0.00 0.00
6:53 am 06:53 Sunny 67 19.4 65 18.3 93 93 ESE 5 7 29.75 1008 9 14 0.00 0.00
7:53 am 07:53 Sunny 72 22.2 68 20 87 87 SE 8 13 29.75 1007 10 16 0.00 0.00
8:53 am 08:53 Sunny 77 25 68 20 74 74 S 10 17 29.73 1007 10 16 0.00 0.00
9:53 am 09:53 Sunny 79 26.1 69 20.6 72 72 S 12 19 29.72 1006 10 16 0.00 0.00
10:53 am 10:53 Sunny 82 27.8 70 21.1 67 67 S 8 13 29.68 1005 10 16 0.00 0.00
11:53 am 11:53 Sunny 86 30 71 21.7 61 61 SSE 13 20 29.67 1005 10 16 0.00 0.00
12:53 pm 12:53 Sunny 89 31.7 73 22.8 59 59 SSE 9 15 29.65 1004 10 16 0.00 0.00
1:53 pm 13:53 Sunny 93 33.9 72 22.2 50 50 SSE 16 26 29.62 1003 10 16 0.00 0.00
2:53 pm 14:53 Sunny 95 35 68 20 41 41 S 18 30 29.60 1002 10 16 0.00 0.00
3:53 pm 15:53 Sunny 95 35 68 20 41 41 S 21 33 29.57 1002 10 16 0.00 0.00
4:53 pm 16:53 Sunny 96 35.6 70 21.1 43 43 SSE 15 24 29.54 1001 10 16 0.00 0.00
5:53 pm 17:53 Sunny 94 34.4 70 21.1 46 46 SSE 13 20 29.54 1000 10 16 0.00 0.00
6:53 pm 18:53 Sunny 94 34.4 68 20 43 43 S 15 24 29.52 1000 10 16 0.00 0.00
7:53 pm 19:53 Sunny 92 33.3 69 20.6 47 47 SSE 16 26 29.51 999 10 16 0.00 0.00
8:53 pm 20:53 Sunny 88 31.1 69 20.6 54 54 SSE 14 22 29.50 999 10 16 0.00 0.00
9:53 pm 21:53 Clear 86 30 66 18.9 51 51 SSE 16 26 29.51 999 10 16 0.00 0.00
10:53 pm 22:53 Clear 85 29.4 64 17.8 50 50 SSE 24 39 29.52 1000 10 16 0.00 0.00
11:53 pm 23:53 Clear 84 28.9 64 17.8 51 51 SSE 20 31 29.52 1000 10 16 0.00 0.00

Powered by AerisWeather